Theta_e
306 306 306 305 305 305 304 304 304 303 303 298 295 297 294 296 293 310 311 309 305 297 290 293 289 289 292 297 296 297 296 294 295 293 296 292 294 291 289 289 287 289 287 289 288 289 284 287 283 286 286 287 290 292 292 293 292 292 290 292 294 295 285 281 284 288 291 295 296 296 296 295 291 292 294 292 289 290 288 288 287 283 285 283 283 280 283
306 306 305 305 305 305 304 305 304 304 303 298 297 293 292 293 293 299 310 310 306 295 284 283 284 290 295 295 294 297 296 295 293 293 294 293 290 287 288 289 293 289 292 288 286 291 281 289 288 285 289 286 295 294 293 293 290 290 289 289 295 285 284 283 278 279 281 285 290 290 295 295 290 289 291 293 293 293 293 293 294 284 287 287 282 279 282
306 306 306 305 305 305 305 305 304 304 303 302 297 291 292 291 296 297 304 308 303 292 294 291 287 291 292 292 290 292 294 298 297 293 293 296 293 290 287 291 293 292 293 290 292 293 289 284 291 290 291 290 296 294 294 294 291 294 299 301 297 289 285 283 276 274 272 273 275 278 281 285 288 291 292 293 292 291 290 284 289 284 288 291 283 282 288
306 306 305 305 305 305 305 305 304 304 303 303 298 294 292 292 284 294 297 302 300 299 300 296 293 291 291 289 291 293 290 295 299 297 295 296 296 293 292 294 295 292 291 289 289 289 293 288 287 288 287 291 294 296 297 296 293 300 304 299 296 289 291 288 284 281 279 282 286 290 291 289 285 288 290 291 293 294 292 292 287 283 286 286 289 290 290
305 306 305 306 305 305 305 304 304 303 303 303 298 296 293 294 288 285 284 292 293 292 294 294 296 290 294 286 292 289 290 293 295 299 292 296 293 294 292 292 290 289 290 288 288 290 289 291 289 288 285 291 293 297 296 296 297 304 300 299 296 292 285 287 288 288 288 290 290 292 292 288 289 289 289 292 292 292 292 288 286 294 289 283 295 296 293
305 305 305 305 306 305 305 304 304 303 303 303 300 293 293 285 289 292 292 286 283 286 287 293 291 293 294 291 294 290 290 291 289 296 297 298 296 290 291 291 293 291 289 289 284 286 286 287 282 291 291 291 293 292 295 294 298 298 296 298 295 288 282 289 289 288 290 292 292 293 292 291 290 290 290 290 291 291 289 292 295 296 285 284 294 297 296
305 305 305 305 306 306 305 304 304 304 303 303 299 289 292 292 290 292 293 285 289 288 290 292 291 291 294 291 293 290 290 289 292 293 293 295 294 294 285 287 289 290 291 287 284 287 284 281 288 288 289 291 291 289 292 295 295 294 294 295 298 292 285 291 291 289 291 291 292 292 291 291 291 291 291 292 291 291 294 298 298 298 297 298 298 298 299
305 305 305 305 306 306 305 305 304 304 302 302 297 292 287 285 285 284 291 290 288 290 291 292 292 290 295 287 291 292 291 290 292 295 294 288 291 293 287 290 293 292 291 288 285 286 290 289 283 292 292 291 292 289 290 289 293 294 295 296 298 293 283 291 290 288 289 290 292 292 291 291 289 291 292 292 292 292 295 298 298 299 297 299 298 297 296
305 305 305 305 305 306 306 305 305 303 303 296 294 293 293 292 293 292 287 284 287 290 290 289 289 288 291 289 292 292 292 291 294 293 298 296 292 294 290 293 292 292 292 293 289 294 295 294 294 295 295 287 295 289 291 295 292 294 295 295 295 294 284 293 290 283 284 290 290 291 292 291 290 290 291 291 291 291 295 293 298 296 295 298 298 295 295
305 305 305 305 305 305 305 305 305 303 303 296 295 292 296 294 295 294 290 283 289 286 289 290 290 285 291 292 292 291 292 294 295 290 299 300 300 298 295 294 294 292 293 293 295 298 299 298 299 299 299 299 298 297 295 296 294 293 293 297 292 292 289 283 283 282 282 289 291 290 290 289 286 287 290 293 295 296 297 298 299 299 300 293 288 294 303
305 305 305 305 305 305 305 305 305 304 301 295 294 293 295 291 289 290 290 282 283 287 287 288 288 291 292 294 292 294 293 294 295 289 289 298 298 300 300 298 294 291 293 297 303 303 302 303 302 302 301 299 297 297 297 298 298 298 295 292 292 294 291 286 290 282 282 289 291 290 284 278 281 292 296 298 295 296 295 296 297 300 302 298 299 300 304
304 305 305 305 305 305 305 305 305 305 302 299 299 296 298 298 295 291 285 281 282 287 286 284 287 289 290 292 292 291 291 293 294 297 292 296 298 301 299 298 297 286 300 305 305 305 305 305 302 300 300 299 298 298 297 295 296 297 298 292 292 292 289 285 290 283 283 287 288 282 276 279 290 295 297 298 300 297 297 298 300 300 302 304 300 302 302
304 305 305 305 305 305 305 305 305 304 304 301 299 295 298 300 295 289 287 284 281 283 282 285 288 290 292 291 291 291 294 296 296 297 297 297 299 299 300 298 297 299 305 303 305 302 296 292 293 294 295 296 295 296 295 294 294 298 297 298 294 287 285 286 286 285 284 283 283 276 277 288 294 295 297 299 299 298 297 295 299 299 302 302 301 302 303
304 304 305 305 305 305 304 305 305 305 304 303 298 297 299 300 293 290 288 283 282 285 286 285 288 288 289 289 290 290 295 294 295 296 294 297 297 297 302 303 304 306 306 305 301 297 289 288 283 285 287 291 290 289 295 297 298 298 298 297 297 294 293 288 283 289 281 282 282 281 289 290 291 292 295 295 292 293 291 285 291 301 301 300 299 302 304
304 304 304 304 305 304 304 305 305 305 304 304 300 299 299 300 298 293 292 288 282 284 285 281 284 286 288 289 289 290 291 292 291 291 296 298 300 301 302 305 309 307 307 303 296 295 287 286 283 283 283 282 279 281 293 291 297 298 298 298 297 299 288 290 286 283 285 282 280 282 281 279 284 292 299 302 302 300 299 295 289 300 300 301 300 302 304
304 304 304 305 304 304 304 305 305 305 304 304 301 298 298 301 301 298 293 288 285 280 285 290 289 288 287 287 291 290 289 288 290 292 292 294 296 300 304 308 307 308 307 302 296 292 286 284 282 283 281 284 289 284 281 289 288 296 298 299 297 299 297 293 285 283 283 283 281 280 278 280 287 292 297 301 303 303 300 292 284 292 296 300 304 305 307
304 304 304 304 304 304 304 304 305 305 304 304 299 298 297 304 301 297 293 291 287 282 290 290 291 290 286 286 290 289 291 288 291 286 286 289 293 296 297 301 307 306 303 297 294 288 286 285 285 285 287 290 285 284 288 285 284 287 295 299 296 294 289 286 284 282 283 282 282 281 283 282 290 301 303 301 304 300 293 281 280 290 304 302 302 305 307
304 304 304 304 304 304 304 304 305 305 304 305 301 298 297 301 304 301 295 291 286 286 289 293 290 286 284 287 287 292 294 293 292 292 289 292 294 294 295 298 297 303 304 290 290 286 285 284 284 284 283 292 294 292 282 286 282 284 286 290 286 286 286 286 284 284 284 284 283 285 286 291 300 303 305 305 304 295 283 280 283 300 307 305 305 309 309
304 304 304 304 304 304 304 304 305 304 304 304 303 300 298 301 303 302 297 292 289 284 291 294 294 291 293 296 293 293 293 292 291 287 286 286 290 296 297 299 300 291 298 288 293 287 286 286 293 289 285 287 292 284 289 285 284 290 292 287 286 286 286 285 285 283 284 284 283 283 285 292 300 304 306 304 297 283 281 289 303 307 306 308 309 308 309
304 304 304 304 303 304 304 304 305 305 304 304 302 296 298 301 302 302 296 290 290 288 291 292 292 290 294 292 289 288 289 290 291 289 287 284 293 296 293 290 295 297 293 294 286 290 287 285 287 291 286 286 290 295 288 288 291 289 290 293 287 288 283 282 282 285 286 284 283 282 281 290 305 305 300 298 285 285 299 305 307 310 309 312 313 313 313
304 304 304 304 303 304 304 305 305 304 304 303 302 298 296 300 302 304 303 296 290 286 288 296 296 294 294 293 293 293 291 288 290 289 291 291 295 291 283 285 291 294 289 290 285 285 288 286 289 289 293 291 291 293 285 286 289 297 296 294 292 297 285 284 285 292 283 284 282 284 292 299 304 303 290 300 304 306 309 307 306 310 311 311 312 313 314
304 304 304 303 303 304 304 304 304 303 303 303 302 299 295 299 302 302 303 301 293 289 291 295 297 295 296 297 297 297 295 294 296 297 292 289 294 292 292 296 298 294 296 297 292 289 293 292 294 289 287 289 294 288 290 285 285 292 300 297 284 296 292 293 286 296 289 286 289 297 302 303 305 305 305 307 310 312 312 311 309 309 310 313 312 313 314
303 304 303 303 303 304 304 304 304 303 303 303 302 299 295 298 299 303 301 295 297 297 298 297 298 298 299 299 301 300 300 301 299 298 298 293 287 293 293 293 294 300 300 299 294 293 293 293 287 293 290 293 290 288 291 290 286 292 287 297 296 300 301 299 295 294 303 303 303 303 303 305 305 308 309 307 309 312 313 312 310 311 311 313 313 313 315
303 303 303 303 304 304 304 304 304 303 303 303 302 299 297 299 300 300 298 296 293 289 292 294 291 286 292 293 299 302 300 300 300 301 302 300 288 286 294 299 300 300 298 299 302 296 294 292 292 294 288 294 296 288 286 285 287 294 291 290 298 301 303 299 292 297 292 286 298 300 302 305 306 307 309 310 310 310 312 312 312 312 313 313 314 314 314
304 303 303 303 304 304 304 304 303 303 303 303 302 301 301 299 300 300 296 288 288 288 284 287 289 295 298 301 301 299 299 302 304 303 302 303 299 293 292 297 301 295 294 298 301 300 294 289 291 291 287 295 296 287 296 289 289 298 288 290 295 293 304 296 295 297 291 291 300 303 306 307 309 309 307 308 309 311 311 312 312 312 313 313 313 315 315
304 303 303 303 303 304 304 303 303 303 303 303 302 298 297 296 300 301 299 298 296 292 284 283 288 298 299 297 295 298 301 301 301 303 303 304 304 302 300 301 300 303 300 302 301 294 291 290 290 291 290 290 300 290 288 295 294 299 295 293 298 300 301 289 297 293 296 303 302 304 305 306 307 308 308 309 310 310 311 312 311 312 311 312 313 312 314
303 303 303 303 303 304 304 304 304 303 303 303 301 300 298 298 300 299 297 296 292 285 285 283 289 293 296 293 296 299 301 302 303 303 303 303 303 303 302 300 297 298 299 298 298 294 291 290 290 291 294 293 299 296 297 297 296 291 289 298 302 300 294 299 292 286 287 291 298 303 291 291 303 305 307 309 311 311 310 312 312 311 311 311 311 311 312
303 303 303 303 304 304 304 304 304 304 303 302 302 301 301 299 300 301 302 301 295 286 286 286 286 290 295 293 299 300 300 301 300 302 302 302 303 302 302 301 300 298 297 294 287 287 287 287 290 291 295 297 294 291 299 298 300 294 294 297 301 298 299 296 288 289 288 300 304 304 304 304 304 306 309 310 312 312 310 310 310 312 313 313 313 311 312
303 303 303 303 304 304 304 304 304 303 303 301 300 299 299 301 302 303 303 306 301 294 289 289 292 290 284 291 298 297 301 303 302 301 301 302 302 303 302 302 300 299 298 294 289 289 288 286 289 291 291 299 297 291 294 287 288 287 294 302 303 303 306 304 303 302 304 305 306 307 304 302 304 308 309 311 312 312 311 312 312 313 313 313 314 315 314
303 303 303 303 303 304 304 304 303 302 302 300 298 296 291 297 302 303 304 306 302 297 287 285 282 285 295 295 294 298 300 302 303 304 302 302 302 302 303 301 300 300 299 290 289 288 288 289 288 296 299 308 296 290 288 290 289 293 301 303 306 306 307 306 308 304 302 307 308 309 308 308 309 310 311 312 312 310 309 310 310 311 313 314 314 314 315
303 303 303 303 303 304 304 303 303 302 301 299 296 288 286 285 296 303 302 302 301 296 289 288 285 290 288 295 296 296 299 301 301 302 304 304 303 303 304 304 302 302 291 291 291 287 289 287 288 292 300 303 296 291 290 289 287 292 299 302 304 305 306 306 307 309 309 308 310 310 310 309 309 310 309 309 310 311 309 309 311 311 312 313 313 313 313
303 303 303 303 303 303 303 303 302 302 300 296 292 291 292 295 299 303 303 302 300 294 288 285 285 284 284 289 296 300 299 300 302 303 301 304 301 305 304 304 300 304 298 291 289 291 288 288 289 295 296 301 298 292 294 291 287 291 299 301 304 305 308 307 307 309 311 310 310 306 304 306 309 307 306 310 310 310 309 309 310 311 311 312 313 313 314
303 303 303 303 304 303 303 303 303 302 299 301 304 303 302 302 303 302 302 300 297 293 294 287 284 285 282 288 295 298 302 304 301 302 299 304 302 304 298 304 303 303 305 296 290 287 292 290 290 292 300 303 290 290 292 288 292 298 301 301 302 305 307 308 310 310 310 309 308 303 302 306 308 310 311 310 311 310 309 310 311 311 311 310 310 311 311
303 303 303 303 304 304 303 303 303 302 302 299 294 296 301 303 302 303 302 299 294 294 291 287 284 283 284 293 289 298 303 295 295 299 289 304 306 301 293 300 302 292 296 291 290 292 291 293 290 288 296 290 294 290 286 293 300 302 302 302 304 306 307 306 308 308 308 308 309 308 308 310 311 310 309 309 309 310 311 310 310 310 309 309 309 310 310
303 303 303 303 303 303 303 302 299 298 294 296 297 301 302 303 304 305 302 295 288 286 287 287 286 283 284 284 283 292 301 297 293 297 291 295 304 300 300 291 292 289 289 303 292 291 291 291 297 288 286 294 290 287 289 296 301 300 300 301 304 305 304 304 305 306 308 309 308 309 308 309 309 306 306 307 308 309 309 309 310 311 310 309 309 311 312
303 303 303 304 303 303 300 300 298 296 295 294 298 305 305 305 304 302 302 301 297 290 287 287 286 283 284 280 282 288 301 294 299 298 298 295 297 304 301 292 287 290 300 293 288 296 291 299 291 287 290 289 287 291 294 298 298 299 301 301 303 303 303 303 305 306 307 308 311 310 309 309 308 307 308 309 310 309 309 308 309 311 309 309 309 310 310
303 303 303 302 301 299 295 294 300 298 298 305 304 304 304 304 306 305 303 301 302 300 291 287 285 285 286 284 286 290 296 286 294 291 295 290 288 291 294 287 286 290 290 288 290 289 294 301 290 287 286 286 289 296 299 299 299 299 300 301 303 304 305 305 305 306 306 307 308 307 307 306 305 305 306 308 308 309 308 307 308 308 308 308 308 308 308
303 302 299 297 295 289 289 291 300 305 304 302 303 299 297 296 289 291 292 290 294 296 290 291 285 288 291 288 283 295 294 288 296 288 288 292 289 288 290 288 288 289 283 285 289 298 294 290 288 286 286 297 298 300 301 301 301 302 302 303 303 304 304 304 305 304 303 302 302 303 304 305 305 305 305 305 306 307 308 309 310 311 310 309 309 310 309
300 299 297 296 293 289 291 300 305 302 305 302 301 291 287 291 288 286 286 288 290 287 290 289 286 290 289 288 290 298 296 291 287 291 286 295 289 285 288 284 287 288 284 283 286 299 285 285 286 286 287 295 295 298 302 301 302 303 303 302 303 303 303 303 305 305 303 303 303 305 304 303 303 304 305 305 305 307 307 308 309 310 310 310 309 309 310
297 293 291 292 291 293 302 304 305 301 299 289 290 287 284 288 285 283 288 284 284 286 289 284 291 291 293 290 290 290 300 295 286 285 287 290 298 287 289 287 287 286 281 281 283 296 285 282 286 285 286 291 295 300 302 301 301 302 302 302 302 302 302 303 303 305 304 304 304 304 304 305 307 306 305 305 305 305 306 307 308 307 308 308 306 309 310
296 295 295 290 297 298 300 303 302 298 292 287 287 287 285 283 286 287 286 283 283 284 290 292 295 294 295 295 295 289 301 301 299 299 293 286 295 294 286 284 288 284 282 281 286 287 285 284 283 284 286 293 298 300 302 301 302 302 302 302 301 301 301 301 301 301 302 303 303 303 304 304 304 306 306 306 307 306 306 306 305 306 307 307 306 308 311
299 297 298 299 298 299 300 298 294 289 289 289 284 281 284 284 286 286 285 281 282 287 292 293 290 292 292 296 294 296 294 303 297 292 289 286 290 288 285 287 287 283 280 285 290 286 284 281 282 284 291 297 299 300 300 302 302 303 302 302 300 300 300 300 300 300 301 301 301 301 301 302 303 303 303 303 306 306 305 305 306 307 308 307 307 311 310
301 301 299 297 295 291 291 286 289 288 282 281 280 278 282 280 282 282 283 287 293 291 292 301 297 300 300 301 295 299 293 301 292 288 288 285 290 290 286 284 283 280 283 290 286 282 280 280 283 287 295 296 300 301 302 304 302 303 302 303 301 301 301 301 299 300 300 301 300 299 299 300 301 302 303 303 303 304 305 305 305 306 307 307 307 307 307
301 300 295 292 289 289 289 281 289 285 282 283 280 276 279 279 282 285 284 286 292 290 296 293 293 292 286 295 293 290 291 295 295 291 288 290 288 284 284 282 282 286 291 285 283 281 282 286 289 292 296 298 300 300 301 301 303 302 302 302 302 300 300 300 300 299 299 300 300 300 301 300 300 302 303 302 302 301 302 303 303 303 303 305 306 306 306
292 288 288 286 285 288 285 278 288 283 278 280 283 281 282 281 283 286 285 290 293 291 293 293 292 292 288 294 294 293 290 287 292 288 284 287 284 285 283 282 286 286 283 280 282 282 284 283 292 296 297 297 298 299 300 302 303 303 302 300 301 301 300 299 299 299 298 299 299 299 299 300 300 300 300 301 302 303 302 301 302 302 303 304 305 307 307
287 286 285 281 277 283 283 280 282 280 284 285 284 286 285 287 288 290 295 297 294 292 291 292 292 291 287 291 287 287 289 289 286 286 288 287 283 281 286 289 287 282 281 282 279 280 282 288 292 294 298 298 299 301 303 303 303 303 302 300 300 300 301 300 299 299 299 299 299 299 298 299 299 299 299 301 302 302 303 303 303 303 302 302 303 304 305
290 290 287 285 280 283 285 280 282 284 288 288 290 291 291 292 294 294 295 295 293 294 293 295 293 294 288 286 287 287 288 289 285 287 287 283 282 285 289 284 280 281 279 278 279 281 285 291 294 297 299 300 302 302 302 302 303 302 301 301 301 301 301 299 299 298 298 299 299 298 298 298 298 299 299 300 301 301 301 302 303 303 303 302 303 304 304
285 289 287 279 277 282 282 284 289 289 291 290 291 292 293 295 293 292 296 296 296 295 294 293 289 289 287 293 292 285 286 288 285 285 287 285 287 284 282 281 281 283 283 282 282 288 290 293 295 296 297 298 300 301 302 301 302 302 303 303 303 301 299 299 299 298 299 299 298 298 298 298 300 300 301 301 301 302 303 304 304 304 303 302 303 303 303
290 287 283 283 285 285 285 288 288 286 289 291 293 293 293 293 291 293 294 295 293 293 294 291 287 287 284 287 285 285 284 287 283 283 287 286 282 279 280 278 279 279 283 285 287 290 292 294 295 296 297 298 299 300 301 301 301 302 304 303 303 302 302 300 299 299 299 299 298 299 298 299 299 299 300 302 301 301 303 304 304 303 302 302 302 302 302
287 286 286 284 284 286 289 290 288 286 289 290 292 291 291 291 292 292 295 295 294 293 292 290 290 286 285 285 282 284 283 286 286 286 283 282 282 283 282 278 281 281 283 287 289 290 293 295 296 295 297 298 298 299 300 301 300 301 303 304 304 303 302 300 300 300 300 300 300 299 299 298 298 299 299 300 302 302 302 300 301 301 301 302 302 301 300
290 287 286 290 286 285 287 283 283 284 286 287 288 289 290 290 293 294 296 295 294 289 286 284 285 285 284 285 284 280 282 287 285 283 283 283 286 284 282 281 282 285 287 291 292 293 294 296 295 295 297 297 298 299 300 301 302 302 303 302 302 301 301 300 300 300 300 300 300 296 299 299 299 301 303 302 301 301 302 302 302 303 302 301 301 301 300
285 283 284 287 290 290 289 289 289 289 289 291 291 292 293 292 293 295 299 294 291 285 283 285 285 283 282 282 284 286 287 285 283 284 283 284 286 283 283 284 287 289 292 293 294 296 296 297 297 296 297 297 297 298 299 301 303 303 302 302 302 302 301 300 300 299 298 299 300 300 301 300 301 301 300 299 298 298 298 300 300 302 302 302 302 303 303
Wind_Speed
19 20 20 21 23 24 26 29 28 25 25 13 12 8 3 2 5 2 4 8 8 4 4 6 3 3 4 6 7 6 5 3 3 5 3 1 2 1 3 4 3 4 3 5 5 5 3 6 3 6 5 7 6 3 11 9 10 9 4 7 2 3 1 2 5 7 6 4 6 7 10 12 13 12 12 9 10 10 5 4 4 3 3 4 1 3 5
19 20 21 21 22 23 26 26 25 23 20 10 9 5 3 5 5 4 3 3 3 2 3 4 4 5 7 6 10 9 7 5 5 4 7 2 1 1 2 3 6 7 4 3 5 4 2 4 5 3 5 4 7 9 3 10 5 6 3 5 4 1 1 2 3 2 3 3 8 8 5 5 7 6 8 10 14 15 13 12 1 5 4 7 6 6 3
19 20 20 21 20 22 24 25 24 24 20 14 6 4 5 5 4 6 2 3 3 2 3 5 5 7 8 9 12 11 5 3 3 7 5 3 3 1 4 7 5 6 4 5 7 8 7 4 7 5 5 5 10 12 8 5 9 5 12 15 7 3 2 1 0 1 4 3 7 7 7 8 3 7 13 15 17 18 8 6 1 6 4 6 3 2 4
18 19 20 20 20 20 21 24 25 25 24 19 6 3 3 2 3 3 1 1 3 6 9 10 8 9 7 8 7 6 10 8 8 4 5 6 3 6 4 5 7 7 4 4 4 4 4 5 4 5 5 6 6 7 15 10 7 15 19 16 8 1 1 2 4 5 3 2 3 4 6 2 6 8 10 14 17 15 8 3 1 5 2 3 4 8 4
18 18 19 20 20 19 20 23 25 26 26 22 6 3 4 3 1 3 4 6 4 4 4 4 1 3 5 6 4 8 9 10 3 4 2 2 4 2 3 3 4 3 8 5 6 6 7 7 8 7 5 6 6 12 12 13 10 17 13 14 5 1 1 5 6 8 11 9 8 9 5 9 8 9 9 12 15 14 5 5 9 3 2 3 2 7 8
17 18 19 19 20 18 19 21 25 27 27 26 4 2 2 2 2 4 2 2 5 8 7 8 12 15 11 8 6 6 11 10 9 8 4 3 4 2 1 4 6 6 8 7 5 2 3 3 3 2 4 8 5 7 6 7 7 10 7 8 3 4 0 5 6 10 11 7 8 8 8 10 11 11 9 10 11 14 12 7 4 5 3 5 4 5 8
16 18 18 19 19 19 18 21 22 26 29 24 3 4 3 3 3 1 7 4 5 5 12 16 12 14 12 4 3 9 10 13 8 2 8 7 3 3 5 2 8 9 5 3 3 5 4 2 2 1 3 3 4 3 7 11 3 6 2 5 1 3 1 5 7 10 10 9 8 8 8 9 12 15 11 13 17 19 10 2 4 5 2 2 1 4 8
16 16 18 18 19 19 18 20 21 23 27 17 4 6 4 5 6 5 6 4 10 10 7 8 9 9 10 3 6 8 9 11 13 8 8 7 2 4 2 12 11 8 7 5 3 3 4 5 3 0 1 6 2 2 3 4 7 1 2 3 4 3 3 3 7 4 8 8 7 7 8 7 10 14 15 17 18 18 5 4 4 2 3 5 4 5 7
15 16 16 17 18 19 18 18 19 20 21 7 8 4 5 3 4 4 7 11 6 6 6 7 9 7 5 6 8 9 10 11 12 8 4 2 10 4 9 11 13 9 7 4 10 10 8 8 10 4 2 3 2 1 2 4 2 7 2 3 2 1 1 2 4 5 7 7 6 4 6 7 10 13 16 19 16 5 1 3 1 3 1 4 4 7 4
14 15 16 17 17 18 18 16 16 17 17 5 6 5 5 3 3 4 4 4 7 8 8 9 7 2 8 8 11 8 13 13 12 8 1 4 3 4 4 8 5 5 3 5 7 6 6 11 10 7 6 6 8 7 5 1 1 2 5 1 2 2 1 3 4 4 4 9 5 2 4 6 9 13 12 12 2 5 2 3 3 1 9 2 3 1 0
13 14 15 16 16 17 17 16 14 15 9 7 7 5 6 5 6 5 2 5 4 3 9 8 7 4 11 12 14 13 12 15 8 9 7 8 10 7 6 7 5 6 3 6 7 9 10 5 5 6 8 9 8 6 6 8 0 2 4 3 1 3 3 2 2 0 5 13 2 3 3 3 9 7 7 1 2 6 6 1 4 2 3 2 3 3 1
14 13 14 15 15 15 16 16 13 12 9 5 5 6 5 6 6 4 4 4 7 6 6 6 8 10 12 15 13 12 14 12 11 11 12 5 6 6 6 6 3 5 5 9 8 10 10 4 6 7 8 9 8 8 8 6 4 3 7 7 5 5 3 1 1 1 4 9 6 2 3 11 7 6 9 6 1 4 8 7 2 1 5 1 2 6 5
13 13 13 14 15 15 15 15 14 11 10 5 5 6 6 6 4 3 4 4 6 8 9 9 13 12 10 14 14 14 14 9 10 13 10 9 3 4 2 2 4 6 11 11 12 9 5 3 6 4 6 7 7 7 7 8 6 3 6 7 7 5 4 2 2 2 2 3 2 4 7 7 6 8 12 10 2 4 5 2 3 6 4 4 1 0 4
13 12 13 13 14 13 14 15 14 10 11 7 5 6 6 5 4 4 3 4 9 6 7 12 9 10 15 15 13 15 12 11 13 7 10 11 4 2 3 2 3 7 8 8 5 3 5 5 2 5 4 3 3 2 2 6 3 3 3 6 9 9 3 2 1 2 2 2 2 6 7 8 5 6 5 5 4 4 5 4 8 3 7 7 3 0 3
12 12 12 13 13 13 13 14 14 10 9 8 5 6 5 4 4 2 2 3 8 13 6 4 9 13 15 12 11 11 10 10 12 11 10 9 2 4 3 4 3 5 7 4 4 2 2 1 2 2 3 3 2 3 4 2 5 7 7 4 5 10 4 2 3 2 2 1 2 5 4 3 7 7 6 4 2 5 8 2 4 5 4 3 8 4 2
12 12 12 12 12 12 13 14 13 9 8 6 4 6 6 4 4 4 2 2 5 7 2 5 11 12 11 10 10 10 8 10 9 10 9 8 11 4 5 4 5 3 3 2 3 2 1 2 2 2 1 2 1 2 3 3 5 5 4 8 6 6 6 7 6 2 4 1 1 3 2 5 8 7 8 6 2 3 6 3 7 6 4 2 10 11 7
11 11 11 12 12 12 12 13 12 10 9 6 4 6 6 2 2 3 4 3 2 10 13 16 11 7 10 8 7 5 7 8 10 8 9 11 13 11 14 14 2 1 2 4 2 3 4 2 0 2 1 2 2 3 4 1 4 6 11 2 7 7 3 4 1 1 2 1 1 4 3 4 5 5 5 7 2 7 5 2 6 6 10 3 7 7 8
12 12 11 11 11 12 12 12 13 10 9 8 5 5 7 8 3 2 4 5 5 8 4 3 10 10 7 5 9 8 7 6 8 7 6 9 9 10 14 9 8 6 4 2 3 3 2 2 4 3 1 3 3 1 4 4 2 2 3 3 2 2 2 2 6 2 2 3 2 2 5 6 4 6 8 12 1 8 6 9 4 5 7 5 7 8 7
11 11 11 11 11 12 12 13 13 11 9 9 6 7 6 4 4 3 4 5 3 8 11 10 9 10 9 7 7 7 6 8 8 8 8 8 3 11 16 5 8 6 9 6 3 2 3 1 0 3 3 2 0 3 4 4 2 3 2 1 1 1 1 0 1 1 5 3 1 5 4 6 5 11 11 5 2 4 7 5 3 3 7 6 7 6 3
11 11 11 11 11 12 12 13 13 11 11 12 6 5 8 9 7 4 5 5 4 10 14 13 9 12 6 7 10 8 8 8 7 5 5 7 7 11 7 2 4 3 4 4 3 3 3 5 4 3 1 3 2 2 2 5 4 3 2 2 1 1 1 1 2 1 2 0 1 2 2 2 12 19 12 5 3 3 2 0 3 3 4 6 6 7 5
10 10 10 11 11 11 12 12 11 11 12 12 8 5 6 6 6 3 5 7 5 8 10 4 6 9 11 15 15 14 10 12 9 5 6 6 6 5 6 5 8 5 5 5 7 5 3 4 6 3 2 3 4 2 6 5 6 7 3 1 2 3 1 1 1 1 3 3 4 3 2 10 12 8 3 5 1 1 2 2 3 4 4 4 5 6 6
10 10 10 10 11 11 11 12 11 10 11 11 10 5 7 5 6 5 6 3 5 8 10 14 14 17 20 16 16 13 15 18 20 12 8 7 1 2 5 6 3 3 1 2 2 2 2 3 3 3 5 4 2 4 5 3 4 4 3 3 1 1 1 2 3 3 2 3 2 7 10 8 8 4 6 13 6 3 3 5 3 3 4 2 6 5 7
9 10 11 10 10 11 11 11 10 10 11 11 8 4 6 7 7 6 6 7 7 9 10 12 12 14 15 17 16 17 18 16 14 10 9 6 5 2 3 5 2 1 1 1 4 3 5 5 3 3 5 1 4 6 4 2 1 5 5 1 1 3 4 2 4 3 1 3 5 8 5 7 8 10 7 12 15 5 7 7 5 5 3 4 6 5 7
9 10 11 10 10 10 11 11 10 10 12 11 7 5 6 6 8 7 5 4 6 9 10 4 2 5 5 11 13 9 8 10 14 14 10 7 6 4 2 2 0 1 0 3 1 4 3 2 4 2 3 4 3 2 4 5 2 3 5 3 1 2 2 1 2 5 1 3 9 10 8 7 9 9 12 12 13 7 8 8 7 4 5 7 6 4 5
10 10 10 10 11 11 11 10 11 11 11 12 10 6 7 7 6 4 6 4 4 3 7 10 12 11 12 10 12 13 10 8 3 9 10 10 10 5 6 4 1 3 5 5 2 2 0 2 4 1 5 3 1 4 2 0 4 2 2 4 4 4 1 1 1 5 1 2 5 6 6 3 7 9 8 10 10 13 12 10 10 11 9 8 6 7 8
10 10 10 10 10 11 11 11 11 11 11 13 11 6 6 8 7 6 6 7 5 4 6 6 9 6 8 14 15 12 15 15 14 10 13 12 12 12 10 3 3 2 3 3 2 2 3 3 3 4 4 4 2 2 2 3 6 3 1 5 2 5 4 1 5 2 3 1 4 7 3 6 9 9 8 6 8 9 8 7 10 14 13 11 9 7 4
9 10 10 10 11 11 11 11 11 12 13 12 6 5 8 8 7 6 6 5 6 4 2 6 10 16 10 17 19 15 13 11 10 8 9 15 13 10 8 6 4 3 4 3 1 2 1 3 2 4 3 3 2 4 4 1 3 2 2 4 4 1 3 2 4 3 4 2 3 6 4 4 7 7 9 12 12 9 11 9 9 10 11 9 9 9 6
9 10 11 11 11 11 11 11 12 12 11 11 7 7 8 9 8 8 7 7 4 5 8 10 11 15 17 15 11 10 15 14 12 10 8 8 10 8 6 5 4 4 2 1 4 2 1 4 5 3 4 3 3 4 3 4 1 1 2 3 2 2 2 2 2 0 1 4 4 2 0 1 4 5 8 12 10 4 10 9 3 6 1 5 9 10 12
9 10 11 11 11 11 11 11 11 10 10 9 6 8 8 10 9 9 9 2 1 4 5 9 10 9 5 11 19 15 13 10 10 8 5 7 7 4 5 6 6 4 3 1 1 1 2 4 3 3 4 1 2 5 4 3 3 3 2 0 2 0 1 2 5 5 4 4 5 2 1 4 4 6 5 7 9 7 7 4 1 5 3 4 12 12 11
9 10 10 11 11 11 11 10 9 9 8 5 5 4 4 2 4 3 3 1 1 2 3 6 8 4 7 8 12 13 13 14 10 5 9 7 5 5 5 3 4 5 4 3 2 3 4 3 3 3 5 2 2 2 2 2 2 2 0 1 1 1 1 1 2 3 4 3 6 2 1 3 5 6 6 9 5 5 6 7 8 7 9 9 12 12 12
10 10 11 11 11 11 10 9 8 8 7 4 3 2 2 1 1 4 5 3 3 2 2 2 9 8 8 5 7 13 14 13 12 9 5 1 2 3 3 2 4 3 3 2 1 4 1 3 1 3 1 1 1 1 2 3 3 3 5 3 1 3 2 2 2 3 7 9 6 4 2 2 3 3 6 8 8 6 7 7 9 10 10 10 10 10 9
9 9 10 11 10 10 10 9 8 6 4 4 4 3 1 1 1 5 7 5 6 3 2 6 7 2 4 7 5 7 13 14 10 3 2 3 3 2 3 3 3 2 1 2 2 1 2 5 1 4 3 4 1 3 2 2 1 4 5 3 2 3 3 2 4 4 4 7 4 4 3 4 4 4 3 7 9 6 4 5 7 8 10 9 8 8 10
8 9 9 10 11 11 11 10 10 6 4 8 13 17 20 24 23 17 9 6 2 3 0 2 5 3 3 7 11 12 5 2 3 1 3 2 2 1 1 2 3 3 2 2 1 2 3 2 2 2 1 2 2 2 1 2 2 4 5 6 6 4 4 3 5 4 4 8 8 1 1 2 4 7 6 6 10 13 8 5 6 7 9 11 9 8 6
8 8 9 10 11 11 12 12 11 11 10 7 6 6 8 16 16 16 4 3 1 1 1 1 4 4 7 7 6 4 5 5 4 2 4 1 0 1 2 2 1 0 1 4 3 1 2 0 0 2 3 3 2 1 1 1 1 4 6 7 3 5 3 6 5 2 2 4 6 8 6 3 3 5 9 11 11 11 13 10 6 7 7 5 4 4 5
7 8 9 10 11 12 13 12 7 3 4 6 7 4 1 2 4 6 9 4 3 1 1 2 2 5 5 4 3 6 6 5 4 4 4 2 2 2 1 0 1 1 3 2 1 3 2 2 2 2 4 2 0 0 0 2 3 5 7 7 5 2 8 7 5 4 3 1 4 4 8 5 5 6 5 6 7 7 8 10 14 15 7 2 2 3 4
7 8 9 9 10 11 7 6 5 4 3 5 5 4 7 6 6 3 3 3 1 2 1 1 2 4 3 4 6 4 6 5 3 4 3 1 2 1 1 1 2 6 2 3 3 1 2 2 2 2 2 1 1 1 1 2 4 6 6 6 6 5 4 3 3 4 3 1 1 4 3 4 5 5 5 6 6 7 8 10 12 11 10 9 4 2 5
7 8 7 9 6 4 4 2 2 6 4 1 6 8 7 3 1 2 1 0 0 1 3 2 4 6 3 4 3 4 3 5 4 4 4 2 2 2 1 2 3 2 1 1 0 2 3 1 1 1 2 2 3 1 5 5 5 5 5 4 5 6 6 5 5 1 2 2 8 7 3 3 4 5 5 5 5 7 8 7 7 9 8 10 9 2 5
4 2 2 3 3 2 2 2 2 1 8 8 7 2 1 1 2 2 1 2 2 3 2 3 7 5 2 2 6 4 3 4 4 3 3 1 3 3 1 1 3 0 3 1 3 4 3 1 1 2 1 1 3 5 3 4 5 5 5 5 6 5 4 5 5 8 7 7 7 6 6 6 6 5 4 5 5 6 5 3 4 7 7 5 7 8 3
2 2 3 3 2 2 1 2 1 3 2 2 3 1 1 1 1 2 2 2 1 3 2 4 6 5 5 5 7 6 3 4 5 3 3 2 1 3 2 2 2 1 2 1 2 2 0 2 3 2 3 0 2 2 3 4 5 5 5 4 4 4 4 4 4 5 5 4 2 2 3 4 5 4 4 4 3 3 3 3 4 4 3 2 2 6 8
2 3 1 2 3 2 2 2 2 1 1 2 1 1 1 1 2 1 2 1 2 2 3 5 5 5 8 8 5 5 1 3 3 3 2 7 1 2 1 1 2 1 2 1 2 1 0 1 1 3 1 2 1 1 4 3 7 6 6 6 6 6 3 4 5 4 4 5 5 5 4 3 4 4 3 4 4 3 3 3 2 1 1 3 3 3 2
2 2 2 2 2 2 3 3 2 2 1 1 1 1 1 1 2 1 1 2 2 2 4 4 3 5 5 7 5 4 1 1 2 1 1 4 3 1 1 1 1 1 1 2 2 0 0 1 0 2 1 1 4 5 6 4 6 5 5 5 5 5 6 6 7 7 7 5 4 4 4 5 4 3 3 3 3 3 2 1 2 1 2 5 3 3 7
1 0 1 2 4 4 3 2 2 1 1 1 1 1 1 1 1 1 1 1 2 1 4 4 2 2 2 4 3 1 1 1 1 1 0 2 2 0 2 1 1 0 1 2 4 2 1 1 3 2 4 5 4 2 4 3 3 4 4 4 4 3 5 5 4 4 5 6 5 5 5 5 5 6 6 3 1 4 3 3 3 3 2 1 1 2 2
3 3 1 2 1 1 1 1 2 1 1 1 1 2 1 1 2 2 1 2 1 1 1 3 2 2 0 2 2 2 2 1 0 1 1 2 2 0 1 1 0 1 3 3 1 2 3 4 5 6 6 5 7 7 5 4 1 4 1 1 3 1 1 2 5 6 6 6 5 5 4 4 5 4 4 6 6 2 1 1 3 4 4 1 2 2 5
2 2 2 1 0 2 1 1 0 1 1 1 1 2 1 2 3 1 1 1 1 2 0 2 3 2 4 2 1 1 1 1 0 0 2 1 1 1 1 1 1 3 2 1 2 2 3 3 0 2 5 6 6 7 9 14 8 4 4 2 2 4 6 8 6 6 6 6 6 7 8 7 7 6 6 5 6 5 6 6 6 6 6 6 3 4 4
1 1 0 0 1 1 1 1 1 1 2 2 2 3 2 3 3 3 3 1 1 3 4 3 3 3 3 3 1 0 1 1 1 1 1 1 1 1 1 2 2 1 1 3 1 3 3 3 5 6 8 9 9 7 5 9 11 13 8 4 3 3 4 6 6 5 5 6 6 6 6 6 6 6 7 7 5 5 5 5 5 6 6 6 6 4 5
2 2 2 1 2 2 1 1 1 2 2 1 3 4 4 6 5 2 1 1 2 4 5 5 5 4 4 3 1 2 1 0 1 1 1 0 1 1 1 1 1 1 1 1 2 4 1 2 3 4 3 3 4 5 5 4 4 6 10 8 5 3 3 5 5 5 5 4 4 5 5 5 5 4 4 4 4 6 6 5 5 5 5 6 6 4 3
0 1 1 1 1 1 1 2 3 3 1 3 4 5 7 6 1 2 2 1 0 2 2 2 2 2 4 4 2 2 1 0 1 1 1 1 1 1 1 1 1 1 1 2 4 2 4 7 6 5 6 7 6 6 6 6 5 7 9 11 9 7 2 5 5 5 4 4 4 5 4 4 5 5 3 4 4 4 4 4 5 4 5 4 5 6 6
1 1 1 1 2 1 5 5 3 5 6 6 7 6 7 3 2 3 1 3 2 3 2 2 3 4 4 2 1 3 3 1 0 2 1 1 0 0 1 1 1 1 3 2 1 1 5 6 7 6 8 7 7 8 7 6 6 5 5 8 10 9 5 4 6 4 4 4 4 4 4 3 3 4 5 3 2 4 3 2 2 3 4 4 5 5 6
1 1 1 1 2 2 3 3 4 7 8 8 8 8 4 0 2 1 3 2 4 4 4 3 1 2 2 0 2 2 2 1 1 1 0 0 0 1 0 1 1 1 1 0 1 2 3 6 7 5 7 7 7 8 6 4 3 4 5 5 7 10 13 1 5 5 4 4 3 4 3 1 1 3 3 4 4 4 4 3 2 3 4 4 4 4 4
1 1 1 1 2 3 4 5 6 7 6 6 5 5 6 3 2 2 1 2 2 1 3 3 0 1 1 0 1 0 2 1 1 1 1 1 0 1 1 1 0 1 3 1 1 2 3 5 4 4 6 6 7 7 7 6 4 3 5 4 5 7 7 4 6 4 4 2 3 4 1 2 2 3 4 2 1 3 0 3 4 2 4 4 4 4 3
1 1 2 2 4 4 2 3 3 4 5 4 5 6 3 4 2 0 1 2 3 3 1 0 0 1 1 1 0 0 0 1 2 1 1 1 1 1 1 1 1 2 3 2 3 3 4 4 3 4 5 6 7 8 7 6 5 4 5 4 3 3 7 4 3 5 5 5 4 3 2 3 2 0 1 3 3 0 3 1 2 1 3 3 3 3 3
1 2 3 3 6 7 7 6 7 7 7 5 5 3 6 3 5 3 0 3 3 2 3 2 2 1 1 2 0 0 1 0 1 2 2 1 1 1 1 2 6 7 4 1 4 6 5 4 2 4 4 6 7 8 8 7 5 5 5 6 5 6 7 9 8 1 4 3 4 5 5 2 1 1 1 4 4 3 1 1 1 2 2 4 3 3 3
Wind_Direction
342 344 342 343 347 347 345 346 345 345 349 356 350 322 300 298 271 328 173 156 151 160 259 272 258 244 286 312 304 310 300 249 267 307 294 89 14 347 241 235 240 252 216 323 329 334 288 280 261 299 320 309 255 219 185 181 187 186 139 85 27 199 308 321 259 244 222 301 309 272 252 253 267 261 270 282 275 251 237 210 199 194 256 256 205 233 256
341 342 342 343 346 346 345 342 342 342 357 351 325 321 313 304 287 279 184 145 172 228 272 293 283 293 300 308 299 303 282 286 290 290 305 130 76 243 255 297 234 263 287 251 271 319 320 289 331 306 313 281 312 310 188 188 216 204 174 140 193 241 247 205 313 14 2 351 314 289 247 247 256 266 267 269 275 260 233 251 125 211 223 190 129 204 271
340 342 341 343 344 345 342 340 338 340 346 356 334 311 313 280 234 219 194 163 151 211 249 281 297 291 300 303 306 315 312 278 12 294 295 129 141 231 240 231 269 280 276 281 270 266 233 285 300 257 291 314 321 298 286 261 235 139 116 118 151 114 234 59 30 157 132 160 201 215 223 227 249 258 269 272 269 267 270 246 269 228 249 222 145 213 254
340 342 342 343 342 342 342 338 338 338 340 347 346 285 289 341 336 320 100 170 239 254 258 263 263 288 302 301 294 306 302 309 175 279 298 142 175 188 266 268 252 260 272 278 276 281 260 255 287 342 325 320 299 326 329 318 252 131 125 131 131 160 227 225 233 261 273 257 269 212 219 208 227 253 263 277 289 286 264 276 205 222 252 235 231 182 217
340 341 342 342 343 344 344 341 339 338 336 344 327 281 203 298 315 352 332 304 230 266 278 293 297 285 322 310 315 306 292 297 327 116 345 191 146 276 192 284 309 295 324 322 299 253 279 274 273 270 280 278 280 294 294 299 295 129 127 131 92 99 316 250 250 259 261 283 331 319 296 264 261 258 263 276 281 283 283 220 233 228 56 322 273 190 142
338 341 341 342 344 346 348 345 343 339 338 339 346 324 342 330 354 31 43 276 298 335 322 356 318 305 310 286 293 284 320 343 334 328 196 269 121 319 234 232 250 273 304 329 297 292 258 265 269 264 239 283 310 313 314 303 270 148 146 160 117 128 318 295 325 296 286 301 306 293 309 283 275 271 261 260 267 266 263 237 249 57 154 203 321 335 97
337 339 341 342 344 347 350 349 347 343 338 338 310 2 349 14 311 291 30 339 307 307 283 295 285 291 285 245 292 334 332 334 335 303 317 340 46 47 303 269 278 276 260 197 259 292 314 289 219 235 300 310 335 331 335 315 282 134 92 60 102 63 276 308 306 295 305 305 296 299 298 307 301 278 260 252 254 261 270 51 71 52 109 169 221 59 85
334 338 340 342 345 348 350 351 352 347 342 334 17 59 356 21 353 329 335 260 284 281 287 290 297 300 307 330 351 335 331 331 332 337 344 337 26 174 218 311 305 291 294 215 218 236 255 268 305 310 320 323 253 265 189 290 336 355 97 101 42 91 286 73 280 287 288 289 289 268 265 277 289 293 269 248 252 257 252 164 79 60 343 342 11 45 39
332 337 340 341 345 348 350 354 355 351 347 360 359 44 42 351 15 336 321 315 296 295 295 301 302 302 309 5 348 329 336 329 325 319 307 67 334 345 321 313 296 308 288 202 224 245 246 252 256 280 259 221 282 17 284 337 284 356 66 42 68 90 265 354 0 5 303 298 279 276 280 276 286 291 292 274 253 257 273 69 1 127 87 304 350 34 358
330 336 338 340 344 346 351 355 356 357 347 360 345 13 357 20 336 316 301 286 295 310 301 303 307 360 359 350 344 333 327 322 331 334 300 353 308 278 241 283 294 288 305 346 311 295 234 235 245 256 246 247 262 264 272 327 14 54 48 36 92 118 98 25 359 16 271 283 262 268 347 349 305 274 267 250 157 147 259 135 99 219 146 149 86 229 187
328 333 336 339 342 345 349 356 356 358 360 7 351 336 336 9 339 323 307 300 288 313 327 310 337 347 333 350 335 331 320 321 355 351 316 328 328 339 294 316 332 296 297 318 300 293 281 243 229 229 240 248 244 259 259 261 159 128 149 96 45 57 70 89 37 88 290 307 282 55 24 303 244 236 258 287 345 95 109 275 181 154 95 205 183 179 181
326 330 333 337 341 343 347 352 354 356 5 347 328 310 324 346 319 308 327 320 287 320 329 308 334 324 327 340 330 322 316 333 351 327 313 311 277 323 345 326 336 322 329 316 310 308 297 242 252 257 262 265 265 236 244 270 258 169 149 134 142 126 97 94 154 14 291 309 347 59 248 239 243 282 299 295 277 118 162 217 153 196 179 48 79 95 82
321 326 329 335 339 342 345 346 351 349 355 346 334 316 328 333 301 337 330 307 286 327 326 314 314 300 333 329 329 321 315 329 328 319 317 330 326 346 359 294 319 305 321 319 320 326 327 339 297 284 259 265 268 265 257 256 258 196 162 139 126 142 135 162 212 162 311 317 237 184 240 265 296 282 275 279 285 194 227 332 183 227 159 171 102 213 114
317 321 326 332 336 341 342 340 345 346 346 355 328 313 302 313 330 350 339 333 298 286 295 300 297 333 338 333 324 312 321 332 325 326 341 329 357 287 294 291 301 310 307 313 314 40 356 13 359 1 330 338 340 347 342 348 323 320 260 171 145 152 101 108 336 199 202 249 232 260 316 327 282 273 266 222 227 180 166 184 258 216 206 139 171 307 109
313 317 322 327 332 338 340 337 341 342 340 351 310 298 307 330 336 319 302 272 303 303 275 237 342 329 321 319 322 326 329 333 332 339 332 309 335 207 271 300 294 273 314 329 355 24 137 292 360 355 310 36 356 297 338 325 319 289 261 252 166 151 143 171 101 270 167 10 354 343 349 266 266 247 272 268 205 155 143 200 306 294 267 165 136 136 180
308 315 317 322 329 335 337 335 340 339 335 344 315 310 307 288 293 277 288 308 317 307 270 357 337 317 319 316 327 336 328 327 332 323 324 333 341 355 352 267 268 314 289 30 338 346 351 40 328 343 339 313 342 328 303 326 316 312 290 205 199 147 138 142 139 247 25 15 194 240 224 252 227 241 260 264 224 131 100 179 279 275 289 42 125 143 140
304 310 313 317 326 330 332 332 335 335 331 339 324 313 300 336 303 297 316 292 216 252 279 294 296 319 327 310 334 336 344 324 342 346 331 335 336 354 335 335 215 225 19 6 340 33 3 331 343 237 265 253 283 294 290 308 329 323 340 326 180 110 99 83 52 199 210 169 253 260 236 263 284 315 308 284 123 95 77 168 266 262 325 279 129 135 135
301 306 310 315 322 325 325 326 329 329 331 338 327 313 298 291 246 256 257 268 298 280 232 293 349 327 306 314 305 300 302 315 320 312 277 311 318 354 334 330 347 9 15 38 354 17 318 360 4 318 328 323 328 294 314 351 306 293 333 355 15 69 123 134 200 213 258 251 237 258 295 282 268 287 303 322 280 92 135 207 230 284 335 318 116 138 145
296 302 305 313 317 320 323 321 327 325 334 334 326 304 268 299 319 262 260 263 257 272 283 313 289 266 268 276 272 299 306 314 313 304 318 324 345 344 320 330 32 338 7 337 322 13 346 358 17 291 350 277 72 337 321 317 290 307 259 341 57 29 100 297 83 278 243 217 148 235 253 245 301 317 307 299 170 170 215 231 231 296 345 350 95 102 87
292 296 301 308 314 318 321 322 327 328 331 333 331 296 293 294 286 274 281 281 261 269 286 289 272 266 265 281 296 299 307 299 274 286 312 291 316 335 324 334 1 336 331 339 31 6 21 352 336 291 318 325 316 306 306 256 200 255 326 309 90 343 91 245 168 231 82 353 50 330 238 302 357 332 328 25 121 226 209 312 345 10 42 59 45 72 65
286 291 296 302 308 314 317 323 330 335 333 331 329 303 300 296 293 280 216 227 270 293 290 247 273 274 283 281 272 270 270 266 274 284 269 280 315 359 359 342 323 343 360 353 350 353 355 325 347 333 349 303 303 346 347 320 313 315 329 34 79 351 80 320 311 172 187 184 197 209 276 298 316 353 328 311 302 218 44 103 34 2 61 75 69 50 64
277 285 290 296 302 310 314 318 330 332 328 329 328 300 282 287 306 305 301 287 268 248 266 283 281 274 270 258 259 245 240 247 254 251 281 295 314 297 256 284 304 350 334 309 355 314 7 331 302 325 321 307 280 330 314 317 2 331 313 60 348 37 185 242 241 326 139 198 257 290 298 282 292 333 332 300 309 44 77 73 68 61 19 30 82 61 44
273 281 286 291 298 304 308 316 321 321 323 327 327 290 300 306 294 303 314 290 267 268 269 273 268 266 270 266 252 246 244 241 243 243 241 258 295 238 278 307 307 329 261 29 353 298 299 312 281 270 289 285 342 324 322 283 351 7 340 245 203 177 204 171 77 264 139 224 228 272 301 336 336 5 337 328 317 3 43 50 49 16 11 36 79 65 59
268 279 283 288 295 301 307 312 311 317 320 318 316 293 293 294 292 302 293 268 279 301 297 225 343 309 285 292 303 304 274 237 224 230 216 219 267 299 305 235 82 310 232 283 276 302 291 276 248 282 269 291 346 287 337 341 360 1 344 312 259 219 198 331 74 295 67 330 319 333 336 322 353 4 10 350 293 7 33 36 28 7 26 40 24 71 79
265 274 282 287 292 297 303 305 309 314 316 312 309 290 284 279 269 273 296 314 315 326 292 309 287 252 271 291 306 294 288 301 271 219 221 204 208 209 235 239 273 241 274 275 280 291 48 322 305 300 306 289 95 297 206 194 305 59 328 281 340 320 150 57 304 302 110 205 279 316 308 0 10 11 359 298 338 22 14 19 19 358 1 17 19 60 63
259 268 280 286 289 293 297 298 303 308 311 313 313 298 295 284 293 293 276 269 262 268 288 293 279 300 329 318 301 295 298 293 277 247 209 207 196 206 235 265 267 205 228 262 265 269 253 260 253 277 287 297 183 257 271 175 254 282 264 268 251 284 319 61 334 345 308 356 358 332 301 39 27 7 315 312 1 17 30 24 22 9 351 12 24 45 48
256 268 276 281 286 290 292 295 301 306 311 314 309 287 285 283 276 273 278 290 319 293 229 271 297 306 328 308 291 292 286 286 281 262 194 203 214 218 228 240 251 293 280 294 284 263 257 257 281 275 246 261 290 256 254 329 230 279 291 295 307 1 34 360 51 355 344 338 349 323 40 1 340 342 327 345 351 14 16 360 52 39 344 345 34 49 41
255 266 272 276 284 290 294 296 301 307 312 313 298 279 268 267 263 254 251 255 256 279 300 293 305 299 310 276 273 295 297 290 273 248 217 211 214 227 241 232 191 200 207 56 349 4 340 321 281 276 282 299 8 311 294 274 110 360 267 301 353 36 344 35 358 173 259 299 336 300 274 317 323 318 347 347 330 1 51 13 320 132 197 307 47 50 46
252 262 270 277 282 290 293 297 304 310 316 317 297 289 269 245 247 243 247 283 332 285 288 284 280 286 293 316 315 304 291 283 276 264 248 207 212 217 224 223 219 187 175 198 177 200 233 237 238 270 275 309 10 286 333 346 2 296 260 354 22 340 268 43 4 330 311 299 293 311 53 61 303 309 349 325 282 251 111 218 153 72 103 36 55 53 56
246 258 266 274 279 284 294 300 307 311 320 315 307 291 297 74 12 20 31 359 349 30 303 327 313 278 313 311 289 294 297 297 296 231 218 208 210 215 229 227 224 193 168 185 156 248 233 240 257 256 255 140 141 256 296 282 308 260 27 79 313 292 88 83 266 326 287 271 268 279 201 211 228 244 220 217 259 34 50 42 34 36 40 45 55 56 54
240 254 263 272 280 287 295 294 300 307 311 293 315 319 274 212 15 21 13 10 26 319 277 232 264 297 298 234 251 281 289 295 287 264 265 144 182 218 240 205 256 185 215 239 116 221 197 263 279 271 286 18 174 237 258 298 324 343 13 10 234 301 349 48 1 263 274 288 268 263 299 323 322 331 2 9 4 18 40 33 29 37 37 48 54 61 58
235 251 262 273 279 284 284 284 289 296 287 274 242 234 291 293 310 320 324 326 347 308 301 307 304 293 289 297 276 289 287 285 283 302 266 149 246 201 257 189 244 230 193 210 211 10 251 235 194 254 285 235 122 297 282 336 33 284 333 1 35 324 289 202 227 240 254 275 271 336 4 358 355 37 308 323 335 337 37 50 41 36 34 36 38 57 72
234 250 263 271 279 280 277 276 280 279 266 286 296 291 283 279 272 262 254 273 310 266 211 241 273 303 268 288 314 306 268 289 300 299 304 178 219 79 317 243 222 248 190 102 252 212 231 215 240 329 273 89 95 232 48 52 254 263 295 311 299 236 242 317 315 3 4 336 334 324 256 330 338 334 330 340 7 4 9 72 53 42 42 43 32 33 59
236 249 261 270 274 275 275 278 283 287 278 264 268 246 246 239 248 255 203 158 229 270 97 272 284 281 281 294 285 291 3 348 303 308 303 312 122 165 237 269 217 93 252 156 227 188 299 33 324 248 336 283 229 46 64 263 302 349 320 306 2 13 32 44 359 337 353 342 19 351 324 314 332 12 25 25 15 10 9 11 31 56 57 36 27 19 47
237 253 261 264 268 272 280 280 281 253 259 263 250 235 35 307 152 149 151 164 137 221 227 223 210 285 307 315 307 286 336 338 314 335 313 269 204 206 224 102 294 93 280 192 297 208 229 239 167 42 269 227 68 18 206 194 248 242 258 272 277 162 136 137 221 221 211 203 47 32 323 347 20 24 12 29 16 21 26 25 31 2 347 43 12 357 38
240 253 258 264 275 280 285 257 216 235 228 234 246 155 154 115 106 131 179 194 218 309 273 302 306 277 296 305 317 296 329 304 327 331 307 312 324 234 156 125 350 252 206 131 216 210 232 233 87 272 265 57 337 252 327 28 27 26 27 23 20 33 69 119 190 227 257 235 175 171 227 29 41 56 31 22 20 15 34 46 39 33 357 334 317 309 71
239 249 273 288 279 241 238 246 166 192 230 67 92 84 49 41 163 172 158 43 83 121 247 279 255 237 204 263 285 265 315 308 315 327 318 336 284 275 90 59 230 248 34 326 312 233 256 67 90 293 315 159 241 208 92 82 62 50 33 24 36 38 27 19 8 18 165 50 53 40 41 73 47 28 44 36 44 52 42 35 65 58 31 335 308 14 73
229 278 289 267 244 269 285 243 219 144 112 102 116 114 154 176 185 168 160 226 198 181 220 216 251 269 262 251 256 272 336 275 355 322 299 307 349 300 238 189 239 183 282 238 236 162 109 84 176 159 286 82 112 68 61 78 74 72 68 47 38 30 39 41 33 37 41 42 31 24 25 32 41 33 43 38 37 58 68 57 58 78 78 38 327 326 25
120 237 243 240 252 248 271 337 165 9 340 187 188 299 224 196 210 217 191 177 185 217 189 217 252 222 214 235 265 262 250 326 318 332 306 313 19 303 343 16 307 32 282 352 304 106 262 246 209 133 58 327 43 3 23 69 70 67 67 51 54 55 45 47 55 86 96 113 119 87 93 62 47 31 28 52 58 78 78 89 76 48 85 121 31 28 327
199 205 221 207 206 247 302 310 112 129 229 240 201 127 258 170 148 247 109 117 220 213 171 232 223 217 205 217 256 300 360 352 322 296 294 305 180 234 278 308 275 357 286 348 261 196 114 287 293 74 331 321 36 322 19 39 75 50 44 27 13 2 22 58 43 55 82 70 54 42 35 62 88 88 74 71 72 62 34 36 60 47 345 61 24 54 295
194 233 231 250 327 327 289 285 216 230 231 270 242 207 221 241 199 227 224 240 253 198 188 224 211 203 202 227 238 268 277 132 224 222 224 246 264 311 21 281 259 353 293 275 279 50 96 327 4 104 222 360 42 14 9 36 73 63 56 45 24 19 33 41 39 33 27 34 48 41 25 21 53 96 112 113 102 108 100 81 59 12 50 65 56 324 300
106 139 329 307 262 266 280 251 208 235 257 203 238 262 224 238 254 247 189 232 253 166 183 221 249 278 235 189 209 181 288 162 213 209 293 311 289 320 270 278 317 25 297 285 314 308 40 314 48 338 338 5 322 357 61 31 62 82 65 69 63 30 43 30 33 35 43 46 38 32 15 18 26 35 29 18 143 125 121 85 62 53 109 176 250 264 295
249 228 214 262 256 245 174 279 214 175 212 203 65 299 257 270 201 209 227 217 238 281 220 200 229 211 43 61 324 164 203 177 54 315 13 265 303 333 306 290 6 301 275 297 327 309 29 17 37 8 12 352 348 351 355 325 322 108 96 86 134 83 101 98 83 65 46 27 18 9 351 22 24 32 41 26 19 38 68 97 67 33 16 76 164 80 51
224 230 210 232 41 267 133 252 165 118 253 228 177 229 227 257 279 237 293 284 313 269 110 323 308 44 309 237 190 278 37 7 33 329 265 269 322 300 8 301 277 274 336 335 312 322 85 74 95 277 330 10 353 1 358 348 324 19 359 9 100 83 61 58 55 51 33 17 11 21 24 26 26 17 17 18 14 25 30 25 12 18 24 18 46 74 53
183 172 256 169 242 230 83 298 196 181 226 206 201 247 231 237 261 168 185 227 191 268 320 318 335 18 330 312 339 342 104 229 219 125 270 325 323 312 286 286 302 3 325 301 331 18 51 345 335 12 6 354 339 331 360 33 16 338 308 343 338 90 82 82 76 69 50 28 13 23 39 23 20 10 11 360 5 35 40 31 14 23 13 19 11 27 47
187 170 164 153 289 279 203 257 181 239 238 226 232 214 235 243 251 287 162 140 309 352 20 3 351 5 324 318 313 260 224 177 353 257 268 350 347 293 264 297 356 311 315 311 40 59 348 12 331 351 340 296 285 320 29 38 48 353 344 346 348 355 93 103 106 95 83 59 40 50 36 21 13 12 12 7 11 29 29 19 21 24 17 22 11 16 30
292 264 241 241 272 234 172 235 227 226 262 239 233 238 240 260 349 323 269 139 175 77 14 8 14 344 330 298 349 336 321 314 235 261 66 331 241 275 359 44 308 292 341 7 34 16 341 348 348 360 5 10 6 5 354 355 28 28 355 335 326 337 138 141 111 104 111 103 92 72 48 28 9 349 6 13 354 33 43 22 12 15 32 25 26 16 11
204 215 184 199 216 200 209 234 252 273 265 264 271 266 272 265 318 306 351 60 66 63 356 33 347 5 347 310 323 261 283 246 307 274 171 238 8 5 337 2 302 12 42 65 327 282 295 317 326 356 0 359 4 359 357 1 349 12 343 326 325 328 344 90 116 117 89 69 71 85 75 44 15 347 329 330 14 26 15 24 35 29 22 27 38 35 37
278 294 232 229 218 222 243 247 235 247 253 253 248 250 243 42 275 330 358 59 51 22 40 33 321 61 277 292 306 332 312 344 288 268 350 59 140 261 88 299 337 32 87 144 298 282 305 310 313 347 356 353 357 353 339 340 333 335 329 331 339 348 329 58 116 116 107 97 101 113 117 125 3 337 1 48 24 342 342 359 50 60 35 43 57 62 52
232 232 223 265 322 287 271 279 277 273 277 288 330 343 346 298 97 64 270 74 71 72 32 8 78 175 238 83 289 333 266 271 252 328 355 303 287 5 5 332 86 189 265 302 294 283 286 291 310 348 354 348 349 339 341 334 340 344 331 347 342 336 328 53 91 102 103 97 76 75 64 132 79 53 356 321 194 244 333 25 344 81 69 39 48 72 59
236 239 255 207 227 259 332 298 309 317 319 332 343 313 319 327 8 212 335 29 27 21 77 222 275 278 292 237 186 276 254 35 320 290 252 297 14 74 56 292 251 243 246 254 260 270 287 298 345 2 350 353 336 335 338 342 337 338 308 306 314 305 330 296 169 151 144 133 119 101 45 83 88 184 275 305 322 241 161 203 324 70 126 115 92 86 96
220 216 229 225 232 251 258 277 287 279 282 290 291 310 329 338 1 334 33 96 89 58 317 345 6 340 334 297 301 291 340 320 272 349 341 46 21 47 325 295 292 285 258 189 317 298 302 302 6 13 359 349 344 338 340 341 342 326 323 330 334 345 350 337 314 24 95 87 93 105 116 126 150 290 329 314 299 317 102 126 298 319 125 106 107 88 79